User: anonymous   Login
Location: Unspecified
(0.0000°N, 0.0000°E)
Time: 04:37:25
(UTC+00:00)
Language:

Kiku 2 - Orbit

View from above orbital plane
View from above orbital plane
View from above satellite
View from above satellite

Ground track
Ground track

The orbit data is extracted from the following two-line orbital elements,

1  9852U 77014A   18019.73101608 -.00000345 +00000-0 +00000-0 0  9991
2  9852 012.1981 319.1404 0005546 316.5187 223.8856 01.00008462096517
Epoch (UTC): 19 January 2018 17:32:39
Eccentricity: 0.0005546
inclination: 12.1981°
perigee height: 35837 km
apogee height: 35883 km
right ascension of ascending node: 319.1404°
argument of perigee: 316.5187°
revolutions per day: 1.00008462
mean anomaly at epoch: 223.8856°
orbit number at epoch: 9651

The dashed part of the orbit path shows where the satellite is in the earth's shadow,  

DLR